Location: Ciserano
(45.5833°N, 9.6000°E)
Time: 05:22:15
(UTC+00:00)

SJ 16-02 - Pass Details

Date: 29 November 2020
Orbit: 606 x 616 km, 75.0° (Epoch: 24 January)

Event Time Altitude Azimuth Distance (km) Brightness Sun altitude
Exits shadow 03:09:05 16° 63° (ENE) 1,612 4.1 -36.1°
Drops below altitude 10° 03:10:29 10° 48° (NE) 1,984 4.5 -35.9°
Sets 03:13:08 0° 33° (NNE) 2,896 5.3 -35.4°
